RPA1241 KBOS-KMVY

Flight info

Callsign RPA1241
Flight time 0h 20m
Altitude 12000
Route LOGAN4 DUNKK
Aircraft E75L/M-SDE3GILORVW/S

Departure

Time 2026-04-18 04:23
Airport Boston Logan International Airport (KBOS)

Arrival

Time 2026-04-18 04:43
Airport Martha's Vineyard Airport (KMVY)
Time Latitude Longitude Altitude Speed Heading
2026-04-18 04:01 42.36168 -71.02196 23 ft 0 kts 107°
2026-04-18 04:09 42.36169 -71.02199 23 ft 1 kts 107°
2026-04-18 04:09 42.36174 -71.02221 23 ft 3 kts 107°
2026-04-18 04:10 42.36179 -71.02244 26 ft 3 kts 112°
2026-04-18 04:10 42.36190 -71.02263 24 ft 3 kts 156°
2026-04-18 04:10 42.36209 -71.02265 23 ft 3 kts 196°
2026-04-18 04:10 42.36227 -71.02255 25 ft 2 kts 203°
2026-04-18 04:11 42.36237 -71.02249 23 ft 3 kts 202°
2026-04-18 04:11 42.36251 -71.02242 23 ft 1 kts 202°
2026-04-18 04:11 42.36252 -71.02241 23 ft 0 kts 202°
2026-04-18 04:13 42.36243 -71.02246 23 ft 3 kts 202°
2026-04-18 04:13 42.36223 -71.02276 26 ft 8 kts 249°
2026-04-18 04:14 42.36181 -71.02350 24 ft 7 kts 189°
2026-04-18 04:14 42.36179 -71.02350 24 ft 0 kts 187°
2026-04-18 04:15 42.36160 -71.02353 23 ft 10 kts 183°
2026-04-18 04:15 42.36070 -71.02312 23 ft 15 kts 147°
2026-04-18 04:15 42.36006 -71.02197 23 ft 16 kts 121°
2026-04-18 04:16 42.35944 -71.02058 23 ft 18 kts 121°
2026-04-18 04:16 42.35878 -71.01906 23 ft 18 kts 118°
2026-04-18 04:16 42.35844 -71.01742 23 ft 18 kts 94°
2026-04-18 04:16 42.35817 -71.01592 25 ft 17 kts 109°
2026-04-18 04:17 42.35775 -71.01435 23 ft 19 kts 109°
2026-04-18 04:17 42.35711 -71.01299 23 ft 14 kts 167°
2026-04-18 04:17 42.35682 -71.01300 23 ft 5 kts 192°
2026-04-18 04:17 42.35677 -71.01302 23 ft 0 kts 195°
2026-04-18 04:21 42.35676 -71.01302 23 ft 1 kts 195°
2026-04-18 04:22 42.35656 -71.01308 23 ft 5 kts 186°
2026-04-18 04:22 42.35610 -71.01295 23 ft 10 kts 147°
2026-04-18 04:22 42.35595 -71.01193 23 ft 17 kts 75°
2026-04-18 04:22 42.35690 -71.00648 25 ft 104 kts 76°
2026-04-18 04:23 42.35916 -70.99352 199 ft 168 kts 76°
2026-04-18 04:23 42.36244 -70.97698 999 ft 195 kts 73°
2026-04-18 04:23 42.36604 -70.95926 1935 ft 196 kts 77°
2026-04-18 04:23 42.36874 -70.94097 2797 ft 201 kts 81°
2026-04-18 04:24 42.36563 -70.92244 3580 ft 213 kts 123°
2026-04-18 04:24 42.35315 -70.91148 4369 ft 223 kts 168°
2026-04-18 04:24 42.33753 -70.91168 5176 ft 226 kts 182°
2026-04-18 04:24 42.32179 -70.90990 5961 ft 229 kts 166°
2026-04-18 04:25 42.30677 -70.90247 6719 ft 232 kts 155°
2026-04-18 04:25 42.29218 -70.89254 7216 ft 244 kts 152°
2026-04-18 04:25 42.27699 -70.88201 6950 ft 243 kts 154°
2026-04-18 04:25 42.26125 -70.87199 6782 ft 256 kts 155°
2026-04-18 04:26 42.24546 -70.86174 6478 ft 244 kts 154°
2026-04-18 04:26 42.23114 -70.85232 6359 ft 224 kts 154°
2026-04-18 04:26 42.21719 -70.84307 6001 ft 218 kts 154°
2026-04-18 04:26 42.20371 -70.83435 5817 ft 207 kts 154°
2026-04-18 04:27 42.19114 -70.82577 6277 ft 203 kts 152°
2026-04-18 04:27 42.17892 -70.81660 7033 ft 204 kts 150°
2026-04-18 04:27 42.16642 -70.80694 7770 ft 205 kts 151°
2026-04-18 04:27 42.15389 -70.79740 8246 ft 214 kts 152°
2026-04-18 04:28 42.14045 -70.78797 7898 ft 217 kts 155°
2026-04-18 04:28 42.12700 -70.77950 7656 ft 209 kts 156°
2026-04-18 04:28 42.11431 -70.77141 7582 ft 197 kts 155°
2026-04-18 04:28 42.10209 -70.76333 7638 ft 194 kts 155°
2026-04-18 04:29 42.08974 -70.75497 7641 ft 201 kts 154°
2026-04-18 04:29 42.07719 -70.74647 7650 ft 202 kts 154°
2026-04-18 04:29 42.06472 -70.73804 7669 ft 207 kts 155°
2026-04-18 04:29 42.05099 -70.72879 7707 ft 240 kts 154°
2026-04-18 04:30 42.03500 -70.71799 7727 ft 270 kts 154°
2026-04-18 04:30 42.01783 -70.70645 7723 ft 279 kts 154°
2026-04-18 04:30 42.00018 -70.69458 7600 ft 288 kts 154°
2026-04-18 04:30 41.98224 -70.68263 7563 ft 286 kts 155°
2026-04-18 04:31 41.96443 -70.67067 7573 ft 287 kts 154°
2026-04-18 04:31 41.94660 -70.65867 7584 ft 287 kts 154°
2026-04-18 04:31 41.92866 -70.64660 7572 ft 288 kts 155°
2026-04-18 04:31 41.91101 -70.63471 7993 ft 284 kts 154°
2026-04-18 04:32 41.89309 -70.62233 8140 ft 298 kts 154°
2026-04-18 04:32 41.87449 -70.60992 7893 ft 293 kts 155°
2026-04-18 04:32 41.85645 -70.59803 7883 ft 286 kts 155°
2026-04-18 04:32 41.83869 -70.58618 8017 ft 285 kts 155°
2026-04-18 04:33 41.82076 -70.57413 8014 ft 288 kts 155°
2026-04-18 04:33 41.80322 -70.56241 7992 ft 274 kts 155°
2026-04-18 04:33 41.78652 -70.55128 7894 ft 263 kts 155°
2026-04-18 04:33 41.77033 -70.54054 7735 ft 256 kts 155°
2026-04-18 04:34 41.75476 -70.53026 7599 ft 248 kts 155°
2026-04-18 04:34 41.74209 -70.52186 7504 ft 242 kts 155°
2026-04-18 04:34 41.72739 -70.51207 7409 ft 230 kts 156°
2026-04-18 04:34 41.71329 -70.50271 7150 ft 224 kts 156°
2026-04-18 04:35 41.69956 -70.49364 7066 ft 217 kts 156°
2026-04-18 04:35 41.68586 -70.48458 6643 ft 229 kts 156°
2026-04-18 04:35 41.67111 -70.47494 6134 ft 241 kts 156°
2026-04-18 04:35 41.65579 -70.46485 5630 ft 246 kts 155°
2026-04-18 04:36 41.64055 -70.45473 5136 ft 243 kts 155°
2026-04-18 04:36 41.62546 -70.44467 4635 ft 241 kts 155°
2026-04-18 04:36 41.61049 -70.43468 4128 ft 239 kts 155°
2026-04-18 04:36 41.59566 -70.42479 3596 ft 238 kts 155°
2026-04-18 04:37 41.57987 -70.41944 2905 ft 236 kts 191°
2026-04-18 04:37 41.56538 -70.42770 2367 ft 221 kts 214°
2026-04-18 04:37 41.55178 -70.43645 1816 ft 216 kts 198°
2026-04-18 04:37 41.53878 -70.44282 1837 ft 182 kts 220°
2026-04-18 04:38 41.53098 -70.45339 2233 ft 136 kts 231°
2026-04-18 04:38 41.52432 -70.46172 2717 ft 145 kts 224°
2026-04-18 04:38 41.51582 -70.47052 3225 ft 164 kts 220°
2026-04-18 04:38 41.50691 -70.47941 3178 ft 155 kts 220°
2026-04-18 04:39 41.49998 -70.48949 2924 ft 139 kts 232°
2026-04-18 04:39 41.49294 -70.49750 2673 ft 131 kts 221°
2026-04-18 04:39 41.48600 -70.50508 2517 ft 124 kts 225°
2026-04-18 04:39 41.47934 -70.51321 2328 ft 136 kts 225°
2026-04-18 04:40 41.47229 -70.52121 2152 ft 133 kts 223°
2026-04-18 04:40 41.46530 -70.52914 1982 ft 131 kts 224°
2026-04-18 04:40 41.45827 -70.53728 1636 ft 137 kts 221°
2026-04-18 04:40 41.45101 -70.54558 1453 ft 137 kts 221°
2026-04-18 04:41 41.44373 -70.55392 1270 ft 138 kts 221°
2026-04-18 04:41 41.43634 -70.56247 1091 ft 142 kts 222°
2026-04-18 04:41 41.42896 -70.57104 874 ft 140 kts 220°
2026-04-18 04:41 41.42158 -70.57938 688 ft 137 kts 221°
2026-04-18 04:42 41.41444 -70.58757 472 ft 135 kts 221°
2026-04-18 04:42 41.40731 -70.59578 316 ft 135 kts 221°
2026-04-18 04:42 41.40030 -70.60383 155 ft 131 kts 221°
2026-04-18 04:42 41.39376 -70.61127 59 ft 111 kts 222°
2026-04-18 04:43 41.38941 -70.61629 63 ft 51 kts 220°
2026-04-18 04:43 41.38703 -70.61899 66 ft 25 kts 213°
2026-04-18 04:43 41.38620 -70.61842 58 ft 11 kts 107°
2026-04-18 04:43 41.38660 -70.61756 63 ft 12 kts 40°
2026-04-18 04:44 41.38730 -70.61677 63 ft 14 kts 39°
2026-04-18 04:44 41.38813 -70.61584 59 ft 17 kts 41°
2026-04-18 04:44 41.38906 -70.61475 63 ft 19 kts 41°
2026-04-18 04:44 41.38992 -70.61375 63 ft 14 kts 42°
2026-04-18 04:45 41.39020 -70.61311 65 ft 6 kts 108°
2026-04-18 04:45 41.39005 -70.61282 59 ft 3 kts 129°
2026-04-18 04:45 41.38994 -70.61265 65 ft 3 kts 130°
2026-04-18 04:45 41.38990 -70.61258 65 ft 0 kts 130°
2026-04-18 04:46 41.38989 -70.61258 65 ft 0 kts 130°